Regional Weather Roundup
Issued by NWS Spokane, WA

Home | Current Version | Previous Version | Text Only | Print | Product List | Glossary On
Versions: 1 2 3 4 5 6 7 8 9 10 11 12 13 14 15 16 17 18 19 20 21 22 23 24 25 26 27 28 29 30 31 32 33 34 35 36 37 38 39 40 41 42 43 44 45 46 47 48 49 50
000
NZUS01 KOTX 210110
RWROTX

Eastern Washington/Northern Idaho Roundup
National Weather Service, Spokane WA
500 PM PST SAT JAN 20 2018

Note: "fair" indicated few or no clouds below 12,000 feet with no
significant weather and/or obstructions to visibility.

...Northeast Washington and Northern Idaho Panhandle...

CITY           SKY/WX    TMP DP  RH WIND       PRES   REMARKS
Spokane Intl   PTCLDY    35  28  75 S5        30.04R
Spokane Downto PTCLDY    36  31  82 CALM      30.06R
Coeur d Alene  CLOUDY    35  31  85 CALM      30.06R
Deer Park      FAIR      30  29  96 NE3       30.05S FOG
Sandpoint      CLOUDY    32  32 100 CALM      30.05S
Bonners Ferry  CLOUDY    34  32  93 SW5       30.02R WCI  30

...Southeast Washington and southern Idaho Panhandle...

CITY           SKY/WX    TMP DP  RH WIND       PRES   REMARKS
Walla Walla    CLOUDY    44  32  62 S6        30.09S
Pullman/Moscow MOCLDY    36  30  79 W6        30.08R
Lewiston       PTCLDY    40  35  83 CALM      30.09R
Lowell           N/A     37  37 100 CALM      30.13R
Grangeville    CLOUDY    34  28  80 SW9       30.05S WCI  26

...Columbia Basin...

CITY           SKY/WX    TMP DP  RH WIND       PRES   REMARKS
Ephrata        MOCLDY    38  27  64 S9        30.03R
Moses Lake     PTCLDY    41  30  65 S6        30.04S
Pasco          PTCLDY    47  33  58 SW9       30.10R
Richland       MOCLDY    48  36  61 S8        30.09R
Hermiston      CLEAR     42  35  76 SE3       30.09S
Pendleton      CLOUDY    42  31  64 CALM      30.08S

...East Slopes Cascades...

CITY           SKY/WX    TMP DP  RH WIND       PRES   REMARKS
The Dalles     CLOUDY    47  38  71 W3        30.11R
Yakima         PTCLDY    47  33  58 SW7       30.03S
Ellensburg     MOCLDY    38  32  79 NW5       30.02R
Stampede Pass  CLOUDY    31  30  96 CALM      29.96S
Wenatchee      MOCLDY    40  27  59 E6        30.02R
Omak           MOCLDY    34  31  88 SE5       30.04R WCI  30
Sunnyside      PTCLDY    42  33  69 SE3       30.06S

...Southern British Columbia...

CITY           SKY/WX    TMP DP  RH WIND       PRES   REMARKS
Penticton      MOCLDY    37  30  75 S17G23    30.00R
Castlegar      MOCLDY    37  28  70 S7        30.02R
Cranbrook      MOCLDY    34  25  69 S8G17     29.93R WCI  27
Osoyoos          N/A     39  30  70 SE5         N/A
Creston          N/A     36  30  80 S5          N/A

...Western Montana...

CITY           SKY/WX    TMP DP  RH WIND       PRES   REMARKS
Kalispell      CLOUDY    35  29  78 SE15      30.00R WCI  25
Missoula       MOCLDY    33  25  72 CALM      30.02R

...Neighboring Cities...

CITY           SKY/WX    TMP DP  RH WIND       PRES   REMARKS
Seattle        CLOUDY    45  40  82 S13       30.01F
Portland       MOCLDY    48  40  73 S12       30.11S
Boise          MOCLDY    37  26  64 NW8       30.08R
Great Falls    PTCLDY    27  19  72 SW10      29.91R WCI  17
Calgary        PTCLDY    36  12  38 SW5       29.76R



USA.gov is the U.S. government's official web portal to all federal, state and local government web resources and services.